TimeCDT,TemperatureF,Dew PointF,Humidity,Sea Level PressureIn,VisibilityMPH,Wind Direction,Wind SpeedMPH,Gust SpeedMPH,PrecipitationIn,Events,Conditions,WindDirDegrees,DateUTC
12:53 AM,73.9,66.0,76,30.11,10.0,Calm,Calm,-,N/A,,Clear,0,2013-09-06 05:53:00
1:53 AM,70.0,66.0,87,30.11,10.0,Calm,Calm,-,N/A,,Clear,0,2013-09-06 06:53:00
2:53 AM,69.1,64.9,87,30.10,10.0,Calm,Calm,-,N/A,,Clear,0,2013-09-06 07:53:00
3:53 AM,66.9,64.0,90,30.10,10.0,Calm,Calm,-,N/A,,Clear,0,2013-09-06 08:53:00
4:53 AM,66.9,63.0,87,30.09,10.0,Calm,Calm,-,N/A,,Clear,0,2013-09-06 09:53:00
5:53 AM,68.0,63.0,84,30.11,10.0,Calm,Calm,-,N/A,,Clear,0,2013-09-06 10:53:00
6:53 AM,66.0,63.0,90,30.12,10.0,Calm,Calm,-,N/A,,Clear,0,2013-09-06 11:53:00
7:53 AM,70.0,64.0,81,30.13,10.0,Calm,Calm,-,N/A,,Clear,0,2013-09-06 12:53:00
8:53 AM,75.0,63.0,66,30.14,10.0,South,3.5,-,N/A,,Mostly Cloudy,190,2013-09-06 13:53:00
9:53 AM,79.0,63.0,58,30.14,10.0,South,6.9,-,N/A,,Partly Cloudy,180,2013-09-06 14:53:00
10:53 AM,82.9,63.0,51,30.14,10.0,South,4.6,-,N/A,,Mostly Cloudy,170,2013-09-06 15:53:00
11:53 AM,88.0,64.9,46,30.12,10.0,SSE,5.8,-,N/A,,Partly Cloudy,150,2013-09-06 16:53:00
12:53 PM,91.0,64.9,42,30.10,10.0,SSE,5.8,-,N/A,,Clear,160,2013-09-06 17:53:00
1:53 PM,93.9,63.0,36,30.08,10.0,Variable,4.6,-,N/A,,Clear,0,2013-09-06 18:53:00
2:53 PM,93.9,62.1,35,30.06,10.0,Calm,Calm,-,N/A,,Clear,0,2013-09-06 19:53:00
3:53 PM,95.0,61.0,32,30.03,10.0,South,6.9,-,N/A,,Clear,170,2013-09-06 20:53:00
4:53 PM,95.0,63.0,34,30.01,10.0,ESE,9.2,-,N/A,,Clear,120,2013-09-06 21:53:00
5:53 PM,93.9,62.1,35,30.00,10.0,SE,4.6,-,N/A,,Clear,140,2013-09-06 22:53:00
6:53 PM,93.0,62.1,36,30.00,10.0,SSE,5.8,-,N/A,,Clear,160,2013-09-06 23:53:00
7:53 PM,84.0,66.0,55,29.99,10.0,Calm,Calm,-,N/A,,Clear,0,2013-09-07 00:53:00
8:53 PM,77.0,68.0,74,30.00,10.0,Calm,Calm,-,N/A,,Clear,0,2013-09-07 01:53:00
9:53 PM,75.9,66.9,74,30.00,10.0,Calm,Calm,-,N/A,,Clear,0,2013-09-07 02:53:00
10:53 PM,73.9,66.9,79,30.01,10.0,SSW,3.5,-,N/A,,Clear,200,2013-09-07 03:53:00
11:53 PM,75.9,66.0,71,30.01,10.0,Calm,Calm,-,N/A,,Clear,0,2013-09-07 04:53:00